Wind_Speed
15 17 19 21 23 26 29 32 32 33 35 34 31 30 30 28 29 29 30 31 32 35 36 40 37 32 28 24 23 24 27 28 28 28 27 28 30 31 34 36 36 37 37 36
8 11 15 19 22 24 29 30 30 30 31 29 28 30 32 29 28 27 29 33 35 37 39 37 29 24 23 23 24 25 24 23 24 25 28 30 30 32 33 35 37 37 36 36
5 7 11 13 16 20 26 30 31 30 29 29 27 29 30 32 32 32 34 35 35 36 37 32 22 22 26 26 26 25 22 22 24 24 26 28 29 30 31 32 34 37 38 39
6 8 10 11 13 17 20 24 27 28 29 31 29 32 32 34 36 37 37 36 34 34 31 23 20 26 29 26 20 21 23 26 26 25 24 24 25 27 29 31 32 34 36 39
8 10 12 13 13 16 18 19 22 22 25 28 32 37 37 37 39 39 38 35 30 27 23 23 24 27 27 21 19 21 22 22 21 21 20 20 22 23 25 29 33 35 36 37
3 5 7 7 8 11 12 14 16 16 18 20 23 28 31 32 33 33 31 25 22 22 22 26 27 25 24 22 23 23 21 21 20 20 19 21 22 24 26 28 30 34 37 37
5 5 5 7 9 10 10 12 14 15 16 17 20 21 20 21 22 23 22 21 23 25 27 27 23 22 24 25 24 23 23 24 23 24 25 25 25 26 27 28 29 33 35 37
6 6 6 8 11 11 11 12 14 16 16 16 19 18 16 17 18 18 20 23 25 26 24 21 22 24 26 25 25 24 25 25 24 25 26 27 28 28 29 30 31 33 34 36
6 7 10 10 9 11 10 11 14 15 16 17 16 17 17 17 17 18 23 24 24 20 18 19 22 26 26 27 28 28 27 28 28 27 28 30 29 29 30 31 33 32 33 37
6 7 10 11 10 9 9 11 13 17 19 18 16 17 18 19 18 21 24 23 21 21 24 27 28 28 29 31 33 34 33 32 31 32 32 32 34 32 31 32 34 34 33 35
10 11 13 15 13 12 12 13 15 17 20 22 21 18 17 20 25 27 28 29 32 32 33 35 37 37 38 39 40 42 42 38 33 30 32 35 39 40 37 35 35 34 33 34
14 15 14 17 18 17 16 19 21 23 24 25 28 28 24 25 27 29 32 35 37 38 39 42 44 44 45 46 47 47 48 47 44 40 38 39 41 43 44 39 37 35 35 34
13 14 15 17 20 20 21 22 25 28 30 31 32 34 34 34 34 34 36 39 41 42 44 46 47 48 48 49 51 52 51 49 49 50 46 43 46 46 43 41 39 37 36 35
14 14 17 20 23 23 23 24 28 31 33 35 33 36 37 38 39 41 43 44 45 46 48 48 50 52 52 53 54 55 54 51 53 56 54 53 51 49 44 43 42 41 39 37
16 18 19 21 23 24 24 26 27 29 32 35 35 36 37 39 41 44 47 49 51 52 55 56 58 59 62 61 58 51 49 54 60 65 64 64 60 53 53 52 51 48 42 37
20 22 23 22 26 27 28 31 33 33 34 35 36 39 40 43 46 49 52 54 55 56 58 59 63 65 59 54 53 53 63 67 71 73 72 70 66 59 57 56 52 48 43 37
24 26 27 25 24 27 28 30 31 33 35 38 41 42 44 47 51 56 58 55 56 60 61 60 65 66 73 80 77 77 78 75 71 70 71 73 73 70 64 58 50 45 42 38
27 28 29 28 28 30 33 33 35 38 40 42 44 46 49 46 49 50 52 62 61 71 64 71 75 83 82 82 82 82 80 77 75 74 78 78 72 67 63 58 48 45 43 40
27 29 30 31 31 33 38 41 42 44 45 44 46 48 50 55 58 60 70 76 75 78 83 89 88 88 87 87 87 85 84 85 86 85 81 78 75 70 63 58 51 48 46 43
28 29 31 33 35 37 39 41 43 44 46 47 50 52 56 61 66 69 74 78 81 84 87 90 92 91 91 91 91 88 84 84 82 77 72 69 64 60 55 52 49 52 49 44
27 28 29 32 34 36 37 37 41 45 49 52 57 61 66 71 76 79 80 82 84 85 88 89 88 88 84 81 78 77 73 67 61 53 46 45 42 38 38 42 47 51 51 44
30 31 31 32 33 35 37 42 47 52 57 62 67 72 76 80 82 83 84 84 82 78 74 72 70 65 59 57 55 54 51 46 42 40 37 37 36 36 38 37 37 45 52 49
31 32 32 34 36 42 49 53 56 61 66 71 76 79 82 83 82 79 73 67 62 57 55 51 47 42 43 42 40 39 38 38 37 38 39 40 43 43 39 39 39 41 53 52
31 35 39 43 48 50 54 58 62 68 73 77 79 80 78 73 68 62 59 54 49 42 38 35 37 40 38 38 40 37 36 39 42 42 42 42 41 41 40 35 33 39 54 55
36 40 44 47 50 53 58 63 69 75 79 81 79 72 66 61 58 53 44 40 38 37 39 39 41 42 43 44 45 45 42 39 41 43 43 41 39 38 35 33 36 42 58 64
39 42 45 50 55 59 63 67 73 78 80 78 72 64 55 52 45 42 43 46 49 51 53 54 55 57 58 58 56 53 52 50 46 43 39 38 36 35 33 35 42 44 61 69
Wind_Direction
213 210 214 220 223 227 234 241 245 249 254 257 257 259 261 257 261 265 269 276 287 293 295 300 303 299 296 292 291 296 300 296 290 282 293 300 298 297 297 295 293 291 288 285
219 220 220 223 226 229 233 236 238 240 246 253 251 249 254 259 265 269 276 286 294 298 301 303 302 293 297 300 300 301 298 297 297 297 297 300 300 299 299 298 297 294 290 287
255 239 245 242 240 237 239 239 237 235 236 245 254 262 268 272 275 277 283 290 296 301 303 301 293 296 300 302 307 307 307 308 309 311 312 311 310 307 306 304 301 296 290 285
285 269 271 273 267 258 252 253 253 252 250 248 256 258 259 265 271 277 283 288 294 297 294 291 295 297 300 304 306 306 311 311 312 315 316 318 319 317 317 314 308 304 298 289
287 281 266 261 266 273 276 273 270 269 268 262 257 261 262 262 268 275 280 286 289 285 284 286 291 295 296 299 300 300 297 297 301 304 310 317 319 321 322 323 319 313 306 299
266 279 268 275 293 286 288 284 280 282 283 281 274 270 269 266 268 274 280 283 281 281 288 295 295 294 293 292 289 288 287 290 295 296 300 305 308 314 319 320 323 320 314 307
357 321 291 277 314 313 300 301 300 294 290 291 290 288 285 279 279 281 282 283 281 281 288 294 293 287 278 276 276 279 285 290 291 289 292 296 301 305 311 318 322 325 322 312
352 349 309 298 308 309 309 302 298 294 293 293 295 295 289 280 277 280 279 279 282 287 291 287 275 268 270 273 275 281 290 291 290 292 298 303 308 309 312 320 326 327 328 321
319 327 324 330 320 308 304 301 292 285 287 290 291 297 292 288 285 283 281 281 285 294 290 276 267 267 271 278 286 294 300 306 308 308 309 309 311 314 317 321 322 326 332 329
318 335 326 333 339 329 317 306 296 292 296 296 298 293 287 290 286 282 282 285 289 295 295 290 285 285 288 293 300 308 312 310 310 311 312 311 309 312 315 314 314 318 324 328
352 347 337 335 336 332 322 313 305 301 305 306 306 303 294 288 290 292 293 293 293 293 296 297 296 297 299 303 308 312 310 307 304 303 306 307 307 309 311 311 310 310 315 325
342 341 336 325 330 332 325 322 316 310 310 310 309 309 305 296 287 286 289 291 292 294 299 300 300 302 303 304 305 306 307 307 304 300 304 306 304 304 306 307 305 306 308 317
335 331 326 320 322 323 320 317 314 312 311 313 313 310 306 303 299 295 295 295 295 294 295 294 295 297 298 298 298 299 299 301 301 301 300 303 303 301 301 303 304 303 306 310
333 330 326 322 315 315 313 310 308 306 306 305 304 299 297 297 297 296 294 292 290 288 288 288 288 289 289 289 291 293 294 295 298 297 297 297 299 297 296 300 303 302 302 306
325 323 324 318 311 308 306 301 296 294 295 297 298 294 293 292 291 290 289 289 289 289 289 289 290 290 289 287 285 286 288 289 294 293 291 294 295 294 292 294 297 297 297 297
319 319 321 318 311 307 306 303 303 302 302 300 300 298 296 294 291 288 286 286 288 286 285 286 287 283 277 277 282 285 290 292 291 290 291 291 287 287 290 291 291 289 288 287
316 317 318 319 312 308 304 302 303 303 304 303 304 301 298 296 295 294 287 281 282 280 272 271 273 276 292 297 294 289 287 287 289 288 285 287 287 288 288 287 285 281 279 279
319 319 318 317 312 307 308 306 307 308 308 307 305 304 299 294 290 283 283 288 283 286 277 280 281 283 288 288 287 284 283 284 285 283 282 282 281 282 281 281 277 268 266 269
316 315 314 313 312 312 312 312 313 313 312 310 307 307 302 299 298 291 290 292 291 287 285 287 287 287 288 287 285 284 283 282 283 283 282 280 277 279 279 274 269 260 257 257
317 316 314 313 312 311 310 314 316 316 312 312 308 304 300 297 295 292 289 286 286 286 285 285 286 287 290 291 290 289 288 286 286 285 281 276 276 276 270 263 254 252 250 248
315 312 311 311 310 313 318 320 317 312 311 309 308 305 302 298 298 297 293 290 290 290 290 289 289 290 293 294 292 292 291 290 286 281 274 269 268 266 260 253 244 241 240 238
320 321 322 321 321 322 324 323 318 316 317 314 311 308 306 304 301 298 296 295 296 298 297 297 296 297 296 294 291 290 289 285 278 268 263 267 270 271 268 262 256 241 223 227
326 327 327 328 328 326 326 324 322 319 317 315 312 310 308 305 304 304 306 307 307 305 301 300 300 301 302 300 296 292 287 285 282 277 271 276 276 274 269 260 251 243 216 211
329 328 328 328 326 325 323 321 320 318 316 314 312 311 310 310 313 315 315 315 317 316 312 307 306 306 307 302 298 295 288 283 282 281 278 276 268 266 266 255 243 237 227 212
328 327 325 323 323 323 322 322 322 319 317 316 316 316 317 316 315 316 321 324 322 315 308 303 302 301 300 300 297 292 288 287 285 282 278 271 265 268 265 251 243 239 230 217
333 333 329 326 326 328 327 325 321 320 321 320 318 319 317 315 317 321 322 321 318 315 311 304 300 299 301 301 297 291 282 281 285 285 278 267 265 265 260 256 257 241 214 207
Height
5857 5859 5860 5862 5865 5868 5870 5871 5872 5873 5873 5874 5876 5876 5877 5877 5877 5876 5874 5873 5871 5869 5867 5864 5861 5858 5856 5855 5853 5851 5847 5845 5843 5842 5841 5840 5837 5835 5832 5829 5827 5824 5822 5820
5858 5859 5859 5860 5861 5864 5864 5865 5866 5868 5868 5868 5869 5870 5870 5870 5869 5869 5868 5866 5865 5863 5860 5857 5854 5852 5850 5849 5848 5845 5841 5839 5837 5835 5833 5832 5830 5827 5824 5821 5818 5816 5814 5811
5858 5860 5859 5859 5860 5861 5861 5861 5862 5863 5863 5863 5863 5863 5863 5862 5861 5862 5861 5860 5859 5856 5853 5851 5849 5846 5843 5842 5840 5836 5834 5832 5830 5828 5826 5823 5821 5819 5816 5813 5810 5807 5804 5801
5858 5859 5859 5860 5860 5859 5859 5860 5860 5860 5861 5860 5860 5858 5858 5856 5854 5855 5855 5854 5854 5851 5848 5846 5844 5841 5837 5835 5834 5831 5828 5826 5824 5822 5819 5817 5815 5812 5809 5806 5803 5799 5796 5793
5857 5858 5858 5858 5858 5857 5857 5857 5856 5856 5855 5855 5855 5852 5853 5853 5851 5850 5850 5849 5848 5846 5844 5841 5839 5836 5833 5832 5830 5827 5825 5822 5820 5816 5813 5811 5809 5806 5802 5798 5794 5791 5787 5783
5856 5856 5856 5857 5856 5855 5854 5853 5852 5851 5850 5849 5848 5847 5847 5848 5847 5846 5845 5844 5842 5840 5838 5836 5834 5832 5829 5827 5824 5822 5819 5816 5813 5810 5806 5803 5801 5798 5795 5792 5788 5783 5778 5772
5855 5855 5855 5854 5853 5853 5852 5851 5850 5848 5847 5845 5843 5842 5844 5842 5841 5841 5840 5839 5837 5835 5834 5832 5829 5826 5823 5821 5819 5817 5815 5811 5808 5804 5801 5797 5795 5792 5789 5785 5781 5775 5770 5764
5855 5855 5854 5853 5852 5851 5849 5848 5847 5845 5844 5842 5840 5839 5840 5838 5837 5837 5835 5833 5831 5830 5829 5827 5823 5820 5817 5815 5812 5810 5808 5805 5802 5799 5795 5791 5788 5785 5781 5777 5772 5766 5762 5756
5855 5854 5852 5850 5849 5848 5846 5845 5844 5842 5840 5838 5838 5836 5835 5833 5833 5832 5830 5827 5825 5824 5822 5820 5817 5814 5812 5809 5806 5804 5802 5798 5793 5789 5785 5781 5778 5776 5773 5768 5765 5759 5754 5750
5854 5853 5851 5849 5848 5846 5845 5843 5841 5838 5836 5834 5834 5832 5830 5830 5829 5827 5823 5821 5819 5817 5814 5812 5809 5806 5802 5799 5796 5793 5790 5786 5782 5779 5775 5771 5768 5767 5765 5762 5758 5753 5747 5742
5851 5850 5849 5847 5846 5844 5842 5840 5838 5836 5833 5830 5828 5830 5828 5826 5823 5821 5818 5815 5812 5809 5805 5802 5799 5796 5793 5789 5785 5780 5777 5774 5771 5768 5766 5764 5760 5758 5756 5754 5751 5747 5742 5736
5848 5847 5845 5844 5843 5841 5839 5837 5834 5832 5829 5826 5822 5824 5821 5819 5817 5814 5810 5806 5802 5798 5795 5791 5787 5784 5780 5776 5773 5769 5766 5763 5760 5758 5756 5753 5751 5749 5745 5744 5741 5739 5735 5730
5847 5846 5844 5842 5841 5838 5835 5832 5828 5825 5822 5820 5817 5817 5811 5807 5804 5802 5799 5795 5791 5787 5783 5779 5776 5773 5769 5766 5763 5759 5755 5751 5748 5746 5744 5743 5740 5738 5735 5733 5732 5729 5725 5720
5846 5845 5843 5840 5836 5833 5831 5829 5824 5821 5816 5813 5812 5808 5803 5799 5794 5790 5786 5783 5778 5774 5769 5765 5761 5758 5756 5753 5750 5747 5743 5738 5735 5733 5731 5731 5731 5727 5725 5724 5722 5720 5716 5711
5844 5842 5839 5836 5832 5829 5826 5823 5820 5817 5812 5807 5804 5799 5795 5790 5785 5780 5775 5770 5766 5762 5757 5752 5747 5743 5739 5737 5734 5732 5728 5724 5720 5718 5718 5717 5717 5717 5714 5713 5712 5711 5708 5704
5840 5838 5835 5832 5827 5823 5821 5816 5812 5809 5805 5801 5796 5791 5786 5780 5775 5769 5763 5757 5752 5747 5742 5737 5732 5729 5727 5723 5718 5714 5712 5709 5706 5703 5702 5701 5700 5701 5701 5701 5699 5698 5698 5696
5836 5833 5830 5827 5823 5819 5816 5811 5807 5802 5796 5791 5786 5782 5776 5770 5763 5756 5749 5744 5740 5734 5727 5722 5718 5711 5707 5703 5699 5696 5694 5691 5688 5686 5684 5684 5683 5683 5683 5684 5687 5686 5686 5686
5831 5827 5824 5821 5818 5813 5810 5803 5799 5794 5789 5783 5777 5770 5763 5756 5749 5743 5735 5733 5725 5715 5706 5701 5696 5689 5683 5678 5674 5672 5669 5666 5664 5663 5662 5662 5662 5662 5663 5665 5669 5671 5673 5675
5826 5822 5818 5814 5810 5805 5800 5794 5790 5785 5779 5773 5766 5760 5753 5744 5738 5731 5719 5709 5700 5692 5684 5675 5669 5664 5659 5654 5648 5646 5645 5641 5638 5636 5634 5635 5637 5639 5640 5645 5649 5654 5658 5661
5821 5816 5812 5806 5802 5798 5795 5789 5782 5776 5768 5762 5754 5747 5739 5729 5721 5714 5700 5688 5679 5669 5660 5650 5641 5635 5629 5622 5614 5614 5615 5613 5612 5609 5607 5608 5609 5612 5615 5620 5629 5635 5640 5645
5816 5811 5807 5802 5797 5791 5788 5782 5776 5768 5760 5750 5739 5730 5719 5707 5696 5687 5675 5664 5653 5643 5634 5624 5615 5612 5607 5597 5588 5587 5587 5586 5585 5584 5582 5583 5586 5589 5593 5597 5604 5613 5623 5629
5810 5806 5801 5796 5791 5787 5780 5774 5766 5756 5744 5734 5722 5710 5698 5686 5673 5661 5650 5640 5629 5617 5607 5598 5589 5586 5582 5575 5568 5566 5565 5565 5564 5566 5568 5569 5570 5574 5578 5583 5587 5592 5603 5615
5804 5800 5793 5789 5785 5777 5768 5760 5752 5740 5728 5716 5703 5690 5675 5661 5647 5635 5625 5615 5605 5596 5588 5580 5573 5570 5566 5561 5555 5552 5550 5549 5549 5550 5552 5553 5554 5555 5559 5564 5571 5577 5585 5598
5799 5793 5787 5780 5774 5769 5759 5749 5738 5725 5713 5699 5683 5667 5651 5636 5627 5616 5606 5597 5588 5580 5574 5569 5563 5558 5554 5549 5544 5540 5538 5535 5534 5535 5536 5537 5538 5539 5541 5547 5554 5560 5567 5576
5797 5790 5782 5775 5768 5760 5750 5737 5724 5709 5694 5678 5662 5646 5633 5620 5612 5601 5593 5587 5580 5574 5568 5560 5553 5546 5541 5536 5531 5527 5524 5521 5518 5517 5518 5519 5520 5520 5523 5530 5537 5545 5551 5559
5790 5783 5776 5767 5757 5747 5735 5721 5706 5690 5674 5658 5642 5632 5621 5609 5600 5594 5587 5579 5571 5563 5555 5547 5539 5530 5523 5516 5510 5506 5504 5502 5500 5500 5502 5503 5504 5505 5508 5512 5514 5513 5525 5544